sat.trackr.live / text

‹ back to catalog

STARLINK-30886

NORAD 58246 · 2023-171S

PAYLOAD ACTIVE UNKNOWN

§ Identity

Operator
Country
US
Launch date
2023-11-08
Launch site
AFETR
Launch vehicle
Mass (kg)
RCS (m²)

Purposes: comms

External: N2YO · Heavens-Above · Gunter

§ Orbital elements

Epoch: 2026-05-25T04:17:20.950080Z

Period
94.27 min
Inclination
43.0044°
Eccentricity
0.0001998
Mean motion
15.27574742 rev/d
Perigee alt
481.7 km
Apogee alt
484.4 km
Semi-major
6,861.2 km
B*
2.2801e-5
RAAN
213.1677°
Arg perigee
290.6944°
Mean anomaly
69.3693°
Rev number
14,143

§ Raw data

STARLINK-308861 58246U 23171S   26145.17871470  .00000365  00000+0  22801-4 0  99922 58246  43.0044 213.1677 0001998 290.6944  69.3693 15.27574742141433

JSON: /api/v1/satellites/58246 · /tle

For live sub-satellite position, see the globe view (requires WebGL).

§ Visibility from observer

Set your observer location to see the next 7 days of passes ≥ 10°. The values pass through the URL so the page stays shareable.

No JS? Fill the form by hand. The geolocation button needs JavaScript.